Weather History for Sheldon, IA

Change the Weather History Date:

Friday, June 6, 2014

  Actual Average Record
Temperature  
Mean Temperature 70 °F -  
Max Temperature 84 °F 80 °F 98 °F (2011)
Min Temperature 57 °F 55 °F 39 °F (1953)
Cooling Degree Days 6    
Growing Degree Days 20 (Base 50)    
Moisture  
Dew Point 57 °F    
Average Humidity 66    
Maximum Humidity 100    
Minimum Humidity 30    
Precipitation  
Precipitation 0.00 in - - ()
Sea Level Pressure  
Sea Level Pressure 29.92 in    
Wind  
Wind Speed 5 mph (SE)    
Max Wind Speed 21 mph    
Max Gust Speed 24 mph    
Visibility 8 miles    
Events Fog    
Averages and records for this station are not official NWS values.
T = Trace of Precipitation, MM = Missing Value Source: NWS Daily Summary

Daily Weather History Graph

Daily Weather History Graph

Search for Another Location

Airport:

Trip Planner

Search our weather history database for the weather conditions in past years. The results will help you decide how hot, cold, wet, or windy it might be!

Date:

Astronomy

Jun. 06, 2014 Rise Set
Actual Time 5:44 AM CDT 9:00 PM CDT
Civil Twilight 5:09 AM CDT 9:35 PM CDT
Nautical Twilight 4:23 AM CDT 10:20 PM CDT
Astronomical Twilight 3:28 AM CDT 11:16 PM CDT
Moon 2:10 PM CDT (6/6) 1:47 AM CDT (6/6)
Length of Visible Light 16h 26m
Length of Day
15h 16m
First Quarter, 58% of the Moon is Illuminated
Jun 6
First Quarter
Jun 12
Full
Jun 19
Last Quarter
Jun 27
New
Jul 5
First Quarter

Hourly Weather History & Observations

Time (CDT) Temp. Heat Index Dew Point Humidity Pressure Visibility Wind Dir Wind Speed Gust Speed Precip Events Conditions
12:15 AM 62.6 °F - 60.8 °F 94% 29.91 in 6.0 mi SSE 5.8 mph - N/A   Clear
12:55 AM 62.6 °F - 60.8 °F 94% 29.91 in 7.0 mi SSE 5.8 mph - N/A   Clear
1:15 AM 62.6 °F - 60.8 °F 94% 29.90 in 6.0 mi South 8.1 mph - N/A   Clear
1:35 AM 60.8 °F - 60.8 °F 100% 29.91 in 4.0 mi SSE 5.8 mph - N/A   Clear
1:55 AM 60.8 °F - 60.8 °F 100% 29.90 in 4.0 mi South 8.1 mph - N/A   Clear
2:15 AM 60.8 °F - 60.8 °F 100% 29.90 in 4.0 mi SSE 5.8 mph - N/A   Partly Cloudy
2:35 AM 60.8 °F - 60.8 °F 100% 29.90 in 4.0 mi South 4.6 mph - N/A   Scattered Clouds
2:55 AM 60.8 °F - 60.8 °F 100% 29.90 in 3.0 mi SSE 5.8 mph - N/A   Mostly Cloudy
3:15 AM 60.8 °F - 60.8 °F 100% 29.91 in 3.0 mi Calm Calm - N/A   Overcast
3:35 AM 60.8 °F - 60.8 °F 100% 29.91 in 2.0 mi SSW 3.5 mph - N/A   Overcast
3:55 AM 60.8 °F - 60.8 °F 100% 29.91 in 2.0 mi SW 3.5 mph - N/A   Overcast
4:15 AM 59.0 °F - 59.0 °F 100% 29.91 in 1.0 mi South 4.6 mph - N/A   Overcast
4:35 AM 59.0 °F - 59.0 °F 100% 29.91 in 0.2 mi South 3.5 mph - N/A Fog Fog
4:55 AM 59.0 °F - 59.0 °F 100% 29.91 in 0.2 mi SSW 3.5 mph - N/A Fog Fog
5:15 AM 57.2 °F - 57.2 °F 100% 29.92 in 0.2 mi Calm Calm - N/A Fog Fog
5:35 AM 57.2 °F - 57.2 °F 100% 29.92 in 0.2 mi Calm Calm - N/A Fog Fog
5:55 AM 59.0 °F - 59.0 °F 100% 29.93 in 0.2 mi South 4.6 mph - N/A Fog Fog
6:15 AM 57.2 °F - 57.2 °F 100% 29.93 in 0.2 mi Calm Calm - N/A Fog Fog
6:35 AM 57.2 °F - 57.2 °F 100% 29.94 in 0.2 mi SSE 4.6 mph - N/A Fog Fog
6:55 AM 59.0 °F - 59.0 °F 100% 29.95 in 0.2 mi SSE 4.6 mph - N/A Fog Fog
7:15 AM 60.8 °F - 60.8 °F 100% 29.95 in 1.5 mi Calm Calm - N/A   Mostly Cloudy
7:35 AM 60.8 °F - 60.8 °F 100% 29.95 in 4.0 mi SW 4.6 mph - N/A   Scattered Clouds
7:55 AM 62.6 °F - 62.6 °F 100% 29.94 in 6.0 mi Calm Calm - N/A   Clear
8:15 AM 64.4 °F - 62.6 °F 94% 29.95 in 9.0 mi SW 3.5 mph - N/A   Clear
8:35 AM 66.2 °F - 64.4 °F 94% 29.96 in 10.0 mi Calm Calm - N/A   Clear
8:55 AM 68.0 °F - 62.6 °F 83% 29.95 in 10.0 mi SW 3.5 mph - N/A   Clear
9:15 AM 69.8 °F - 64.4 °F 83% 29.95 in 10.0 mi Calm Calm - N/A   Clear
9:35 AM 71.6 °F - 64.4 °F 78% 29.95 in 10.0 mi Calm Calm - N/A   Clear
9:55 AM 73.4 °F - 64.4 °F 73% 29.96 in 10.0 mi Variable 4.6 mph - N/A   Clear
10:15 AM 75.2 °F - 62.6 °F 65% 29.95 in 10.0 mi West 4.6 mph - N/A   Clear
10:35 AM 77.0 °F - 59.0 °F 54% 29.95 in 10.0 mi Variable 3.5 mph - N/A   Clear
10:55 AM 78.8 °F - 57.2 °F 47% 29.95 in 10.0 mi Variable 4.6 mph - N/A   Clear
11:15 AM 80.6 °F - 51.8 °F 37% 29.94 in 10.0 mi Variable 3.5 mph - N/A   Partly Cloudy
11:35 AM 80.6 °F - 51.8 °F 37% 29.95 in 10.0 mi NNW 6.9 mph - N/A   Partly Cloudy
11:55 AM 80.6 °F - 51.8 °F 37% 29.94 in 10.0 mi Calm Calm - N/A   Clear
12:15 PM 80.6 °F - 51.8 °F 37% 29.94 in 10.0 mi ESE 4.6 mph - N/A   Partly Cloudy
12:35 PM 82.4 °F - 51.8 °F 35% 29.95 in 10.0 mi Calm Calm - N/A   Mostly Cloudy
12:55 PM 82.4 °F - 51.8 °F 35% 29.95 in 10.0 mi Variable 4.6 mph - N/A   Mostly Cloudy
1:15 PM 82.4 °F - 51.8 °F 35% 29.95 in 10.0 mi SE 9.2 mph - N/A   Partly Cloudy
1:35 PM 80.6 °F - 50.0 °F 34% 29.94 in 10.0 mi Variable 3.5 mph - N/A   Partly Cloudy
1:55 PM 82.4 °F - 51.8 °F 35% 29.94 in 10.0 mi SSW 8.1 mph 15.0 mph N/A   Partly Cloudy
2:15 PM 82.4 °F - 51.8 °F 35% 29.93 in 10.0 mi Variable 4.6 mph - N/A   Scattered Clouds
2:35 PM 82.4 °F 81.4 °F 53.6 °F 37% 29.93 in 10.0 mi South 10.4 mph - N/A   Scattered Clouds
2:55 PM 82.4 °F 81.4 °F 53.6 °F 37% 29.92 in 10.0 mi Variable 6.9 mph 13.8 mph N/A   Scattered Clouds
3:15 PM 82.4 °F 81.4 °F 53.6 °F 37% 29.92 in 10.0 mi SW 9.2 mph - N/A   Scattered Clouds
3:35 PM 82.4 °F 81.4 °F 53.6 °F 37% 29.92 in 10.0 mi Variable 4.6 mph 11.5 mph N/A   Partly Cloudy
3:55 PM 82.4 °F 81.4 °F 53.6 °F 37% 29.91 in 10.0 mi Calm Calm - N/A   Partly Cloudy
4:15 PM 84.2 °F 82.8 °F 53.6 °F 35% 29.90 in 10.0 mi Variable 5.8 mph - N/A   Clear
4:35 PM 84.2 °F 82.8 °F 53.6 °F 35% 29.89 in 10.0 mi NE 6.9 mph - N/A   Mostly Cloudy
4:55 PM 84.2 °F - 51.8 °F 33% 29.89 in 10.0 mi SE 5.8 mph - N/A   Mostly Cloudy
5:15 PM 84.2 °F - 50.0 °F 30% 29.89 in 10.0 mi Variable 5.8 mph - N/A   Overcast
5:35 PM 84.2 °F - 50.0 °F 30% 29.87 in 10.0 mi NE 4.6 mph - N/A   Scattered Clouds
5:55 PM 84.2 °F - 50.0 °F 30% 29.88 in 10.0 mi Calm Calm - N/A   Clear
6:15 PM 84.2 °F - 50.0 °F 30% 29.88 in 10.0 mi ESE 4.6 mph - N/A   Partly Cloudy
6:35 PM 84.2 °F - 51.8 °F 33% 29.89 in 10.0 mi SSE 5.8 mph - N/A   Scattered Clouds
6:55 PM 82.4 °F - 50.0 °F 32% 29.89 in 10.0 mi Calm Calm - N/A   Mostly Cloudy
7:15 PM 82.4 °F - 51.8 °F 35% 29.89 in 10.0 mi Calm Calm - N/A   Partly Cloudy
7:35 PM 82.4 °F - 51.8 °F 35% 29.89 in 10.0 mi South 5.8 mph - N/A   Scattered Clouds
7:55 PM 80.6 °F 80.3 °F 53.6 °F 39% 29.90 in 10.0 mi SSE 3.5 mph - N/A   Partly Cloudy
8:15 PM 80.6 °F 81.1 °F 59.0 °F 48% 29.91 in 10.0 mi NNE 10.4 mph 16.1 mph N/A   Partly Cloudy
8:35 PM 77.0 °F - 60.8 °F 57% 29.92 in 10.0 mi NNE 18.4 mph - N/A   Scattered Clouds
8:55 PM 75.2 °F - 60.8 °F 61% 29.92 in 10.0 mi NNE 13.8 mph 24.2 mph N/A   Mostly Cloudy
9:15 PM 73.4 °F - 60.8 °F 65% 29.90 in 10.0 mi NNE 19.6 mph - N/A   Partly Cloudy
9:35 PM 73.4 °F - 59.0 °F 61% 29.91 in 10.0 mi NE 20.7 mph - N/A   Clear
9:55 PM 69.8 °F - 57.2 °F 64% 29.92 in 10.0 mi NNE 15.0 mph - N/A   Clear
10:15 PM 68.0 °F - 55.4 °F 64% 29.91 in 10.0 mi NE 19.6 mph - N/A   Clear
10:35 PM 68.0 °F - 55.4 °F 64% 29.92 in 10.0 mi NE 15.0 mph - N/A   Clear
10:55 PM 66.2 °F - 55.4 °F 68% 29.92 in 10.0 mi NE 15.0 mph - N/A   Partly Cloudy
11:15 PM 66.2 °F - 55.4 °F 68% 29.92 in 10.0 mi NE 12.7 mph - N/A   Partly Cloudy
11:35 PM 66.2 °F - 57.2 °F 73% 29.93 in 10.0 mi ENE 11.5 mph - N/A   Clear
11:55 PM 66.2 °F - 57.2 °F 73% 29.90 in 10.0 mi NE 12.7 mph - N/A   Clear